{"data":{"norad_id":69357,"epoch":"2026-09-20T02:30:07.988832Z","epoch_age_seconds":63205,"freshness":"FRESH","line1":"1 69357U 26123E   26263.10425913  .00019025  00000+0  57266-3 0  9993","line2":"2 69357  53.1574 143.2578 0001122  80.5778 279.5351 15.34405989 16814","mean_motion":15.34405989,"eccentricity":0.0001122,"inclination_deg":53.1574,"raan_deg":143.2578,"arg_perigee_deg":80.5778,"mean_anomaly_deg":279.5351,"bstar":0.00057266,"rev_number":1681,"period_min":93.847391780481,"perigee_km":461.91789941715,"apogee_km":463.45297997261,"semimajor_km":6840.8224396949,"source":"CELESTRAK","updated_at":"2026-09-20T09:00:44.164955Z"}}